Tracking 21092 objects as of 14-Aug-2020
HD Live streaming from Space Station
objects crossing your sky now
Track the most recent launched group of Starlink satellites

OBJECT B

Track OBJECT B now!
10-day predictions


NORAD ID: 44487
Int'l Code: 2019-052B
Perigee: 533.1 km
Apogee: 566.9 km
Inclination: 97.6 °
Period: 95.5 minutes
Semi major axis: 6921 km
RCS: Unknown
Launch date: August 17, 2019
Source: People's Republic of China (PRC)
Launch site: Jiuquan Satellite Launch Center, China (JSC)
aabbcc
Your satellite tracking list
Your tracking list is empty




NASA's NSSDC Master Catalog

Two Line Element Set (TLE):
1 44487U 19052B   20227.20281546  .00001011  00000-0  69762-4 0  9992
2 44487  97.5714 300.7310 0024432  98.4477 261.9519 15.07818519 54704
Source of the keplerian elements: AFSPC